Regional Weather Roundup
Issued by NWS

Home | Current Version | Previous Version | Text Only | Print | Product List | Glossary On
Versions: 1 2 3 4 5 6 7 8 9 10 11 12 13 14 15 16 17 18 19 20 21 22 23 24 25 26 27 28 29 30 31 32 33 34 35 36 37 38 39 40 41 42 43 44 45 46 47 48 49 50
000
ASUS43 KLOT 090803
RWRIL

ILLINOIS REGIONAL WEATHER ROUNDUP
NATIONAL WEATHER SERVICE CHICAGO/ROMEOVILLE IL
200 AM CST FRI DEC 09 2016

NOTE: "FAIR" INDICATES FEW OR NO CLOUDS BELOW 12,000 FEET WITH NO
SIGNIFICANT WEATHER AND/OR OBSTRUCTIONS TO VISIBILITY.

* THESE STATIONS ARE NOT UNDER NWS QUALITY CONTROL. THEY ALSO MAY NOT
  REPORT WEATHER SUCH AS PRECIPITATION OR FOG.

ILZ001-002-007-009-015-016-024-090900-
NORTHWEST ILLINOIS

CITY           SKY/WX    TMP DP  RH WIND       PRES   REMARKS
MOLINE         CLOUDY    22  11  62 W10       30.53R WCI  11
STERLING*      CLOUDY    21  16  81 W12       30.50R WCI   9
$$

ILZ003-004-008-010-011-017-018-090900-
NORTH CENTRAL ILLINOIS

CITY           SKY/WX    TMP DP  RH WIND       PRES   REMARKS
ROCKFORD       FLURRIES  22  16  78 W9        30.48R WCI  12
FREEPORT*      CLOUDY    21  15  80 W10       30.48R WCI   9
ROCHELLE*      CLOUDY    21  16  82 W14       30.47R WCI   8
$$

ILZ005-006-012>014-019>023-090900-
NORTHEAST ILLINOIS

CITY           SKY/WX    TMP DP  RH WIND       PRES   REMARKS
CHICAGO-OHARE  CLEAR     21  15  78 W12       30.43R WCI   9
CHICAGO-MIDWAY PTCLDY    22  15  75 W13       30.44R WCI  10
AURORA         PTCLDY    20  14  77 W9        30.46R WCI   9
LANSING*       MOCLDY    21  18  87 W7        30.45R WCI  12
WAUKEGAN       CLEAR     20  16  84 W7        30.40R WCI  11
DUPAGE AIRPORT CLEAR     19  14  81 W9        30.43R WCI   8
KANKAKEE*      CLOUDY    22  17  78 W12       30.47S WCI  11
WHEELING       CLEAR     21  15  78 W9        30.44R WCI  11
MORRIS*        CLOUDY    22  17  81 W12       30.47R WCI  11
NORTHERLY ISL    N/A     23  18  81 W13         N/A  WCI  11
$$

LMZ740>746-090900-
SOUTHERN LAKE MICHIGAN

STATION/POSITION SKY/WX   TEMP    WIND        PRES    VSBY  WAVE
                          AIR SEA DIR/SP/G                  HT/PER
                          (F)     (DEG/KT/KT) (MB)    (MI)  (FT/S)
HARRISON CRIB              24     290/ 19/ 21   N/A
BURNHAM HARBOR             23     280/ 13/ 17   N/A
CALUMET HARBOR             22     250/  5/  9 1029.6R
BURNS HARBOR               27     270/ 17/ 22 1030.1R
$$

ILZ025>027-034>036-040-047-049-050-058-095>099-090900-
WEST-CENTRAL ILLINOIS

CITY           SKY/WX    TMP DP  RH WIND       PRES   REMARKS
QUINCY         CLEAR     16  11  80 W6        30.57R WCI   7
GALESBURG*     FLURRIES  21  17  85 NW8       30.53R WCI  12
MACOMB*        CLOUDY    23  14  70 NW13      30.56R WCI  11
JACKSONVILLE*  CLOUDY    19  12  76 W7        30.57R WCI   9
PITTSFIELD*    CLEAR     18  12  78 W5        30.58S WCI  11
$$

ILZ028>032-037-038-041>044-048-051>054-059>061-090900-
CENTRAL ILLINOIS

CITY           SKY/WX    TMP DP  RH WIND       PRES   REMARKS
BLOOMINGTON    CLOUDY    21  13  71 W14       30.50R WCI   8
DECATUR        CLOUDY    22  14  71 NW12      30.53R WCI  10
PEORIA         CLOUDY    22  12  65 NW8       30.54R WCI  12
LACON*         CLOUDY    22  14  71 W8        30.51R WCI  12
LINCOLN*       FLURRIES  24  17  76 CALM      30.54R
SPRINGFIELD    CLOUDY    23  14  68 W8        30.55R WCI  14
TAYLORVILLE    CLOUDY    22  14  70 CALM      30.55S
$$

ILZ033-039-045-046-055>057-062-063-090900-
EAST-CENTRAL ILLINOIS

CITY           SKY/WX    TMP DP  RH WIND       PRES   REMARKS
CHAMPAIGN      FLURRIES  22  14  71 W14       30.52R WCI   9
MATTOON        FLURRIES  21  13  71 NW12      30.53R WCI   9
PARIS*         FLURRIES  21  17  83 W10       30.53S WCI  10
$$

ILZ079-100>102-090900-
SOUTHWEST ILLINOIS

CITY           SKY/WX    TMP DP  RH WIND       PRES   REMARKS
ALTON          CLEAR     19  13  79 W7        30.60R WCI   9
BELLEVILLE     CLEAR     19  13  76 W3        30.59R
CAHOKIA*       CLEAR     22  12  65 NW10      30.61R WCI  11
SPARTA*        PTCLDY    20  13  74 NW7       30.60S WCI  11
$$

ILZ064>066-069>071-074>076-080>082-084>086-088>090-092>094-090900-
SOUTH-CENTRAL ILLINOIS

CITY           SKY/WX    TMP DP  RH WIND       PRES   REMARKS
CARBONDALE     CLEAR     20  14  77 NW3       30.60R
CAIRO*         CLEAR     22  14  70 W3        30.61R
EFFINGHAM*     CLOUDY    23  16  73 NW10      30.57R WCI  12
MARION         CLOUDY    25  16  68 NW3       30.60R
CENTRALIA*     CLOUDY    24  15  69 NW7       30.58R WCI  16
SALEM*         CLOUDY    24  14  65 NW8       30.57S WCI  16
$$

ILZ067-068-072-073-078-083-087-091-090900-
SOUTHEAST ILLINOIS

CITY           SKY/WX    TMP DP  RH WIND       PRES   REMARKS
LAWRENCEVILLE  CLOUDY    22  12  65 NW13      30.57R WCI  10
HARRISBURG*    CLOUDY    26  15  65 N8        30.59R WCI  17
ROBINSON*      FLURRIES  21  14  73 NW7       30.57R WCI  13
CARMI*         CLOUDY    25  15  64 NW16      30.57R WCI  12
$$

ABBREVIATIONS USED IN REMARKS
   TC - TEMPERATURE IN CELSIUS
  WCI - WIND CHILL INDEX
   HX - HEAT INDEX
  VSB - VISIBILITY
$$





USA.gov is the U.S. government's official web portal to all federal, state and local government web resources and services.